Isle Of Man, United Kingdom

12:46 PM GMT on November 18, 2017 (GMT +0000)
Isle Of Man

Weather History for EGNS - November, 2012

Change the Weather History Date:

Friday, November 16, 2012

  Actual Average Record
Temperature  
Mean Temperature 46 °F -  
Max Temperature 49 °F 48 °F 57 °F (1997)
Min Temperature 44 °F 40 °F 32 °F (1998)
Degree Days  
Heating Degree Days 18    
Moisture  
Dew Point 42 °F    
Average Humidity 82    
Maximum Humidity 93    
Minimum Humidity 71    
Precipitation  
Precipitation 0.00 in - - ()
Sea Level Pressure  
Sea Level Pressure 29.85 in    
Wind  
Wind Speed 5 mph ()    
Max Wind Speed 9 mph    
Max Gust Speed -    
Visibility 7.6 miles    
Events      
Averages and records for this station are not official NWS values.
T = Trace of Precipitation, MM = Missing Value Source: Averaged Metar Reports

Daily Weather History Graph

Daily Weather History Graph

Search for Another Location

Airport or City:

Trip Planner

Search our weather history database for the weather conditions in past years. The results will help you decide how hot, cold, wet, or windy it might be!

Date:

Astronomy

Nov. 16, 2012 Rise Set
Actual Time 7:49 AM GMT 4:17 PM GMT
Civil Twilight 7:09 AM GMT 4:56 PM GMT
Nautical Twilight 6:25 AM GMT 5:40 PM GMT
Astronomical Twilight 5:43 AM GMT 6:22 PM GMT
Moon 10:40 AM GMT (11/16) 6:51 PM GMT (11/16)
Length of Visible Light 9h 47m
Length of Day
8h 27m
Waxing Crescent, 10% of the Moon is Illuminated
Nov 16
Waxing Crescent
Nov 20
First Quarter
Nov 28
Full
Dec 6
Last Quarter
Dec 13
New

Hourly Weather History & Observations

Time (GMT) Temp. Windchill Dew Point Humidity Pressure Visibility Wind Dir Wind Speed Gust Speed Precip Events Conditions
12:50 AM 48.2 °F - 44.6 °F 87% 29.98 in 6.2 mi West 6.9 mph - N/A   Partly Cloudy
1:50 AM 46.4 °F 44.3 °F 42.8 °F 87% 29.98 in 6.2 mi WNW 4.6 mph - N/A   Partly Cloudy
2:50 AM 47 °F - 43 °F 79% 29.98 in 16 mi West 5.8 mph - -   Partly Cloudy
2:50 AM 46.4 °F 43.5 °F 42.8 °F 87% 29.98 in 6.2 mi West 5.8 mph - N/A   Scattered Clouds
3:50 AM 48.2 °F - 42.8 °F 82% 29.95 in 6.2 mi West 9.2 mph - N/A   Mostly Cloudy
4:50 AM 46.4 °F 43.5 °F 41.0 °F 81% 29.95 in 6.2 mi West 5.8 mph - N/A   Scattered Clouds
5:20 AM 44.6 °F 41.4 °F 39.2 °F 81% 29.95 in 6.2 mi West 5.8 mph - N/A   Partly Cloudy
5:50 AM 45 °F - 40 °F 78% 29.95 in 16 mi West 5.8 mph - -   Mostly Cloudy
5:50 AM 44.6 °F 41.4 °F 41.0 °F 87% 29.95 in 6.2 mi West 5.8 mph - N/A   Mostly Cloudy
6:20 AM 46.4 °F 42.9 °F 41.0 °F 81% 29.95 in 6.2 mi West 6.9 mph - N/A   Mostly Cloudy
6:50 AM 46.4 °F 42.9 °F 41.0 °F 81% 29.95 in 6.2 mi WSW 6.9 mph - N/A   Mostly Cloudy
7:20 AM 46.4 °F 42.9 °F 41.0 °F 81% 29.92 in 6.2 mi WSW 6.9 mph - N/A   Mostly Cloudy
7:50 AM 46.4 °F 42.9 °F 41.0 °F 81% 29.92 in 6.2 mi West 6.9 mph - N/A   Mostly Cloudy
8:20 AM 46.4 °F 42.4 °F 41.0 °F 81% 29.92 in 6.2 mi West 8.1 mph - N/A   Scattered Clouds
8:50 AM 46 °F - 40 °F 74% 29.92 in 19 mi West 8.1 mph - -   Scattered Clouds
8:50 AM 46.4 °F 42.4 °F 41.0 °F 81% 29.92 in 6.2 mi West 8.1 mph - N/A   Partly Cloudy
9:20 AM 46.4 °F 41.9 °F 41.0 °F 81% 29.92 in 6.2 mi West 9.2 mph - N/A   Partly Cloudy
9:50 AM 46.4 °F 42.9 °F 41.0 °F 81% 29.89 in 6.2 mi WSW 6.9 mph - N/A   Partly Cloudy
10:20 AM 48.2 °F - 41.0 °F 76% 29.89 in 6.2 mi WSW 9.2 mph - N/A   Partly Cloudy
10:50 AM 48.2 °F - 41.0 °F 76% 29.89 in 6.2 mi WSW 9.2 mph - N/A   Partly Cloudy
11:20 AM 48.2 °F - 42.8 °F 82% 29.89 in 6.2 mi SW 8.1 mph - N/A   Scattered Clouds
11:50 AM 49 °F - 43 °F 71% 29.88 in 25 mi SW 9.2 mph - -   Partly Cloudy
11:50 AM 48.2 °F - 42.8 °F 82% 29.86 in 6.2 mi SW 9.2 mph - N/A   Scattered Clouds
12:20 PM 50.0 °F - 42.8 °F 76% 29.86 in 6.2 mi SW 9.2 mph - N/A   Mostly Cloudy
12:50 PM 50.0 °F - 42.8 °F 76% 29.86 in 6.2 mi WSW 6.9 mph - N/A   Mostly Cloudy
1:20 PM 50.0 °F - 42.8 °F 76% 29.83 in 6.2 mi WSW 6.9 mph - N/A   Overcast
1:50 PM 50.0 °F - 42.8 °F 76% 29.83 in 6.2 mi West 5.8 mph - N/A   Overcast
2:20 PM 48.2 °F - 42.8 °F 82% 29.80 in 6.2 mi West 5.8 mph - N/A   Overcast
2:50 PM 49 °F - 43 °F 74% 29.82 in 19 mi West 4.6 mph - -   Mostly Cloudy
2:50 PM 48.2 °F - 42.8 °F 82% 29.80 in 6.2 mi West 4.6 mph - N/A   Mostly Cloudy
3:20 PM 48.2 °F - 42.8 °F 82% 29.80 in 6.2 mi WNW 4.6 mph - N/A   Mostly Cloudy
3:50 PM 48.2 °F - 42.8 °F 82% 29.80 in 6.2 mi Variable 3.5 mph - N/A   Mostly Cloudy
4:20 PM 48.2 °F - 42.8 °F 82% 29.80 in 6.2 mi West 3.5 mph - N/A   Partly Cloudy
4:50 PM 48.2 °F - 42.8 °F 82% 29.77 in 6.2 mi Variable 1.2 mph - N/A   Partly Cloudy
5:20 PM 46.4 °F - 42.8 °F 87% 29.77 in 6.2 mi Variable 1.2 mph - N/A   Partly Cloudy
5:50 PM 47 °F - 43 °F 82% 29.78 in 16 mi NW 3.5 mph - -   Partly Cloudy
5:50 PM 46.4 °F 45.2 °F 42.8 °F 87% 29.77 in 6.2 mi NW 3.5 mph - N/A   Partly Cloudy
6:20 PM 46.4 °F 44.3 °F 42.8 °F 87% 29.77 in 6.2 mi NNW 4.6 mph - N/A   Mostly Cloudy
6:50 PM 46.4 °F - 44.6 °F 93% 29.77 in 6.2 mi WNW 2.3 mph - N/A   Overcast
7:20 PM 48.2 °F - 44.6 °F 87% 29.74 in 6.2 mi Variable 3.5 mph - N/A   Overcast
7:50 PM 48.2 °F - 42.8 °F 82% 29.74 in 6.2 mi WNW 4.6 mph - N/A   Mostly Cloudy
8:20 PM 46.4 °F 44.3 °F 42.8 °F 87% 29.74 in 6.2 mi West 4.6 mph - N/A   Scattered Clouds
8:50 PM 47 °F - 42 °F 77% 29.75 in 12 mi WNW 4.6 mph - -   Overcast
8:50 PM 46.4 °F 44.3 °F 42.8 °F 87% 29.74 in 6.2 mi WNW 4.6 mph - N/A   Scattered Clouds
9:50 PM 46.4 °F 44.3 °F 42.8 °F 87% 29.74 in 6.2 mi WNW 4.6 mph - N/A   Mostly Cloudy
10:50 PM 44.6 °F - 42.8 °F 93% 29.71 in 6.2 mi Calm Calm - N/A   Scattered Clouds
11:50 PM 45 °F - 42 °F 87% 29.71 in 12 mi Calm Calm - -   Overcast
11:50 PM 44.6 °F - 42.8 °F 93% 29.71 in 6.2 mi Calm Calm - N/A   Mostly Cloudy